Home   Weather   Timmins   Past weeks

Flag for Canada Past Weather in Timmins, Ontario, Canada — Yesterday and Last 2 Weeks

Now
57 °F

Passing clouds.


Feels Like: 57 °F
Forecast: N/A
Wind: 5 mph from North

Location: Timmins

Current Time: Sep 24, 2016 at 6:41:20 PM

Latest Report: Sep 24, 2016 at 6:00 PM


Visibility: 15 mi

Pressure: 30.29 "Hg

Humidity: 39%

Dew Point: 32 °F

Location of TimminsLocation

Past Weather in Timmins — Graph

°F

Timmins Temperature Yesterday

Maximum temperature yesterday: 59 °F (at 3:00 PM)
Minimum temperature yesterday: 32 °F (at 6:00 AM)
Average temperature yesterday: 45 °F

High & Low Weather Summary for the Past Weeks

 TemperatureHumidityPressure
High75 °F (Sep 12, 4:00 PM)100% (Sep 10, 7:00 AM)30.38 "Hg (Sep 10, 7:00 AM)
Low30 °F (Sep 24, 7:00 AM)33% (Sep 20, 4:00 PM)29.52 "Hg (Sep 10, 8:00 PM)
Average55 °F83%30.02 "Hg
* Reported Sep 9 5:00 PM — Sep 24 5:00 PM, Timmins, Weather by CustomWeather, © 2016

Note: Actual official high and low records may vary slightly from our data, if they occured in-between our weather recording intervals... More about our weather records

Advertising

Timmins Weather History for the Previous 24 Hours

Scroll right to see more
 ConditionsComfort  
Time TempWeatherWind HumidityBarometerVisibility
5:00 PM
Sat, Sep 24
59 °FPassing clouds.6 mph34%30.29 "Hg15 mi
4:00 PM57 °FPassing clouds.2 mph36%30.29 "Hg15 mi
3:00 PM57 °FPassing clouds.5 mph39%30.31 "Hg15 mi
2:00 PM55 °FPassing clouds.3 mph38%30.33 "Hg15 mi
1:00 PM54 °FPassing clouds.5 mph47%30.36 "Hg15 mi
12:00 PM52 °FPassing clouds.6 mph47%30.36 "Hg15 mi
11:00 AM50 °FPassing clouds.7 mph58%30.37 "Hg15 mi
10:00 AM45 °FPassing clouds.No wind81%30.38 "Hg15 mi
9:00 AM37 °FPassing clouds.2 mph93%30.38 "Hg15 mi
8:00 AM32 °FIce fog.5 mph93%30.37 "Hg3 mi
7:00 AM30 °FLight fog.3 mph93%30.35 "Hg15 mi
6:00 AM32 °FPassing clouds.2 mph100%30.32 "Hg15 mi
5:00 AM34 °FPassing clouds.No wind100%30.31 "Hg15 mi
4:00 AM36 °FPassing clouds.3 mph100%30.30 "Hg15 mi
3:00 AM36 °FPassing clouds.No wind93%30.29 "Hg15 mi
2:00 AM37 °FClear.5 mph93%30.29 "Hg15 mi
1:00 AM41 °FClear.6 mph87%30.28 "Hg15 mi
12:00 AM39 °FClear.5 mph93%30.27 "Hg15 mi
11:00 PM
Fri, Sep 23
39 °FClear.3 mph100%30.28 "Hg15 mi
10:00 PM43 °FPassing clouds.5 mph93%30.29 "Hg15 mi
9:00 PM41 °FPassing clouds.3 mph100%30.27 "Hg15 mi
8:00 PM48 °FPassing clouds.No wind82%30.27 "Hg15 mi
7:00 PM52 °FPartly sunny.2 mph82%30.27 "Hg15 mi
6:00 PM54 °FPartly sunny.6 mph67%30.26 "Hg15 mi
Weather by CustomWeather, © 2016

See weather overviewHow to use our weather pages